KG4AGD Weather Reports


time (UTC)temp
F
wind
direction
speed
knots
gust
knots
rain 1hr
in
rain 24hr
in
rain mn
in
humidity
%
barometer
mb
20260508064831 52 68 0.0 0.0 0.00 0.00 0.00 100 1014.9
20260508064329 52 92 0.0 0.0 0.00 0.00 0.00 100 1014.9
20260508063827 52 282 0.0 0.0 0.00 0.00 0.00 100 1014.9
20260508062723 53 57 0.0 0.0 0.00 0.00 0.00 100 1014.9
20260508062220 53 33 0.0 0.0 0.00 0.00 0.00 100 1014.9
20260508061618 53 34 0.0 0.0 0.00 0.00 0.00 100 1014.9
20260508061116 53 57 0.0 0.0 0.00 0.00 0.00 100 1015.2
20260508060011 53 305 1.7 1.7 0.00 0.00 0.00 100 1014.9
20260508055508 53 113 0.0 0.0 0.00 0.00 0.00 100 1014.9
20260508055006 53 51 0.0 0.0 0.00 0.00 0.00 100 1014.9
20260508054504 53 338 0.0 0.0 0.00 0.00 0.00 100 1014.9
20260508053958 53 103 0.0 0.0 0.00 0.00 0.00 100 1014.9
20260508053456 53 136 0.0 0.0 0.00 0.00 0.00 100 1014.9
20260508052954 53 119 0.0 0.0 0.00 0.00 0.00 100 1014.9
20260508052452 53 44 0.0 0.0 0.00 0.00 0.00 100 1014.9
20260508051949 53 309 0.0 0.0 0.00 0.00 0.00 100 1014.9
20260508051447 53 325 0.0 0.0 0.00 0.00 0.00 100 1014.5
20260508050343 54 355 2.6 2.6 0.00 0.00 0.00 99 1014.9
20260508045841 54 324 0.0 2.6 0.00 0.00 0.00 99 1014.5
20260508045338 54 308 1.7 1.7 0.00 0.00 0.00 99 1014.9
20260508044836 54 310 2.6 2.6 0.00 0.00 0.00 99 1014.5
20260508043731 54 26 0.0 2.6 0.00 0.00 0.00 98 1014.9
20260508043229 54 320 0.9 1.7 0.00 0.00 0.00 99 1014.5
20260508042727 54 359 0.0 1.7 0.00 0.00 0.00 98 1014.5
20260508042224 54 322 0.0 2.6 0.00 0.00 0.00 98 1014.5
20260508041722 54 336 2.6 2.6 0.00 0.00 0.00 98 1014.9
20260508041219 54 328 2.6 3.5 0.00 0.00 0.00 98 1014.9
20260508040717 55 275 1.7 2.6 0.00 0.00 0.00 98 1014.5
20260508040215 54 338 1.7 3.5 0.00 0.00 0.00 98 1014.5
20260508035713 54 335 1.7 5.2 0.00 0.00 0.82 98 1014.5
20260508035210 54 341 3.5 5.2 0.00 0.00 0.82 98 1014.5
20260508034708 54 295 2.6 5.2 0.00 0.00 0.82 98 1014.5
20260508034206 54 330 2.6 3.5 0.00 0.00 0.82 97 1014.2
20260508033703 54 346 0.0 0.9 0.00 0.00 0.82 97 1014.2
20260508033200 54 322 1.7 3.5 0.00 0.00 0.82 97 1013.8
20260508032658 55 311 3.5 4.3 0.00 0.00 0.82 97 1013.8
20260508032155 54 5 2.6 3.5 0.00 0.00 0.82 97 1013.8
20260508031653 54 333 1.7 3.5 0.00 0.00 0.82 97 1013.8
20260508031151 54 20 0.0 3.5 0.00 0.00 0.82 97 1013.8
20260508030649 54 3 2.6 3.5 0.00 0.00 0.82 97 1013.5
20260508030146 54 15 2.6 3.5 0.00 0.00 0.82 97 1013.2
20260508025644 54 31 3.5 4.3 0.00 0.00 0.82 97 1013.2
20260508025142 54 16 2.6 5.2 0.00 0.00 0.82 97 1013.2
20260508024639 54 356 2.6 5.2 0.00 0.00 0.82 97 1013.5
20260508024137 54 322 5.2 5.2 0.00 0.00 0.82 96 1013.5
20260508023635 54 344 2.6 6.1 0.00 0.00 0.82 96 1013.5
20260508023132 54 6 4.3 4.3 0.00 0.00 0.82 96 1013.5
20260508022628 54 22 0.0 3.5 0.00 0.00 0.82 97 1013.5
20260508022126 54 2 0.9 4.3 0.00 0.00 0.82 97 1013.2
20260508021623 54 26 2.6 4.3 0.00 0.00 0.82 96 1013.5
20260508021121 54 28 2.6 4.3 0.00 0.00 0.82 97 1013.5
20260508020619 54 331 3.5 6.1 0.00 0.00 0.82 97 1013.2
20260508020116 55 22 2.6 5.2 0.00 0.00 0.82 96 1013.2
20260508015614 54 359 3.5 5.2 0.00 0.00 0.82 96 1013.2
20260508015111 54 21 4.3 6.1 0.00 0.00 0.82 96 1013.2
20260508014609 55 338 3.5 4.3 0.00 0.00 0.82 96 1013.2
20260508014106 55 335 0.9 2.6 0.00 0.00 0.82 96 1013.2
20260508013604 55 83 0.0 3.5 0.00 0.00 0.82 96 1012.8
20260508013102 54 45 1.7 2.6 0.00 0.00 0.82 96 1012.8
20260508012558 54 351 3.5 4.3 0.00 0.00 0.82 96 1012.8
20260508012056 54 59 2.6 3.5 0.00 0.00 0.82 96 1012.5
20260508011554 55 340 2.6 7.0 0.00 0.00 0.82 96 1012.5
20260508011051 55 33 3.5 7.0 0.00 0.00 0.82 96 1012.1
20260508010549 55 21 6.1 7.8 0.00 0.00 0.82 95 1012.1
20260508010047 55 46 5.2 7.8 0.00 0.00 0.82 95 1012.1
20260508005544 55 10 3.5 10.4 0.00 0.00 0.82 95 1011.8
20260508005042 55 340 8.7 8.7 0.00 0.00 0.82 95 1012.1
20260508004539 55 10 4.3 7.0 0.00 0.00 0.82 95 1012.1
20260508004037 55 26 3.5 8.7 0.00 0.00 0.82 94 1011.8
20260508003535 55 19 5.2 6.1 0.00 0.00 0.82 94 1012.5
20260508003032 55 15 5.2 8.7 0.00 0.00 0.82 94 1012.1
20260508002530 55 14 7.0 7.8 0.00 0.00 0.82 94 1012.1
20260508002028 55 23 2.6 5.2 0.00 0.00 0.82 95 1011.5
20260508001526 55 21 6.1 7.8 0.00 0.00 0.82 94 1011.8
20260508001023 55 11 5.2 9.6 0.00 0.00 0.82 95 1011.8
20260508000521 55 33 8.7 8.7 0.00 0.00 0.82 94 1011.5
20260508000018 55 27 4.3 11.3 0.00 0.00 0.82 94 1011.5
20260507235515 55 25 7.0 7.0 0.00 0.00 0.82 94 1011.1
20260507235013 55 59 7.8 9.6 0.00 0.00 0.82 95 1011.1
20260507234511 55 8 5.2 8.7 0.00 0.00 0.82 95 1011.1
20260507234009 55 54 6.1 8.7 0.00 0.00 0.82 94 1011.1
20260507233506 55 341 4.3 10.4 0.00 0.00 0.82 94 1011.1
20260507233004 55 36 7.8 12.2 0.00 0.00 0.82 95 1010.8
20260507232459 55 15 6.1 9.6 0.00 0.00 0.82 95 1011.1
20260507231957 55 18 7.0 7.0 0.00 0.00 0.82 95 1011.1
20260507231455 55 11 7.8 9.6 0.00 0.00 0.82 96 1011.1
20260507230953 56 325 8.7 9.6 0.00 0.00 0.82 96 1010.8
20260507230451 56 40 4.3 13.9 0.00 0.00 0.82 97 1011.1
20260507225949 56 44 2.6 5.2 0.00 0.00 0.82 98 1010.8
20260507225447 56 359 6.1 9.6 0.00 0.00 0.82 97 1010.8
20260507224944 56 0 5.2 7.8 0.00 0.00 0.82 97 1010.4
20260507224442 56 29 7.0 11.3 0.00 0.00 0.82 96 1010.8
20260507223940 56 27 7.8 12.2 0.00 0.00 0.82 96 1010.4
20260507223438 56 54 9.6 10.4 0.00 0.00 0.82 96 1010.4
20260507222935 56 77 5.2 7.8 0.00 0.00 0.82 96 1010.4
20260507222433 57 38 5.2 10.4 0.00 0.00 0.82 97 1010.4
20260507221931 57 30 4.3 6.1 0.00 0.00 0.82 97 1010.4
20260507221429 57 20 3.5 5.2 0.00 0.00 0.82 97 1010.8
20260507220926 57 27 6.1 7.8 0.00 0.00 0.82 96 1010.8
20260507220423 57 8 6.1 11.3 0.00 0.00 0.82 96 1010.4
20260507215921 57 28 7.0 11.3 0.00 0.00 0.82 97 1010.4
20260507215419 58 13 9.6 9.6 0.00 0.00 0.82 96 1010.4
20260507214917 58 309 12.2 13.0 0.00 0.00 0.82 95 1010.4
20260507214414 59 326 7.0 9.6 0.00 0.00 0.82 96 1010.4
20260507213912 59 84 7.8 11.3 0.00 0.00 0.82 95 1010.1
20260507213410 60 294 7.0 9.6 0.00 0.00 0.82 95 1009.8
20260507212907 60 5 7.0 7.8 0.00 0.00 0.82 95 1009.4
20260507212405 60 0 9.6 9.6 0.00 0.00 0.82 94 1009.4
20260507211903 61 21 11.3 11.3 0.00 0.00 0.82 95 1009.4
20260507211400 61 61 4.3 7.0 0.00 0.00 0.82 95 1009.4
20260507210858 61 334 6.1 7.8 0.00 0.00 0.82 96 1009.4
20260507210356 61 330 7.0 8.7 0.00 0.00 0.82 95 1009.4
20260507205853 62 355 8.7 10.4 0.00 0.00 0.82 95 1009.1
20260507205350 62 20 5.2 9.6 0.00 0.00 0.82 95 1009.1
20260507204848 62 359 7.0 9.6 0.00 0.00 0.82 95 1009.1
20260507204346 63 359 11.3 11.3 0.00 0.00 0.82 95 1008.8
20260507203844 63 21 9.6 9.6 0.00 0.00 0.82 95 1008.8
20260507203341 62 320 7.8 10.4 0.00 0.00 0.82 96 1009.1
20260507202839 63 13 4.3 8.7 0.00 0.00 0.82 97 1009.1
20260507202337 63 349 6.1 10.4 0.00 0.00 0.82 97 1008.8
20260507201834 62 357 7.8 9.6 0.00 0.00 0.82 96 1008.8
20260507201332 62 324 6.1 7.0 0.00 0.00 0.82 96 1008.8
20260507200830 63 17 7.8 13.9 0.00 0.00 0.82 95 1008.8
20260507200328 63 329 11.3 13.9 0.00 0.00 0.82 94 1008.8
20260507195826 65 354 9.6 12.2 0.00 0.00 0.82 93 1008.8
20260507195323 67 34 9.6 9.6 0.00 0.00 0.82 89 1008.8
20260507194821 71 342 6.1 13.0 0.00 0.00 0.82 85 1008.4
20260507194319 75 239 7.0 7.0 0.00 0.00 0.82 87 1008.1
20260507193817 77 198 7.0 7.0 0.00 0.00 0.82 86 1008.1
20260507193314 76 224 5.2 5.2 0.00 0.00 0.82 86 1008.4
20260507192812 76 226 5.2 5.2 0.00 0.00 0.82 87 1008.1
20260507192310 75 197 3.5 7.0 0.00 0.00 0.82 91 1008.4
20260507191807 75 235 3.5 6.1 0.00 0.00 0.82 89 1008.1
20260507191305 75 206 2.6 5.2 0.00 0.00 0.82 88 1008.1
20260507190802 76 217 5.2 6.1 0.00 0.00 0.82 90 1008.1
20260507190300 73 186 4.3 4.3 0.00 0.00 0.82 94 1007.7
20260507185758 73 188 3.5 3.5 0.00 0.00 0.82 92 1008.1
20260507185256 73 202 4.3 4.3 0.00 0.00 0.82 92 1008.4
20260507184754 72 292 7.8 7.8 0.00 0.00 0.82 94 1008.8
20260507184252 72 209 4.3 4.3 0.00 0.00 0.82 94 1008.8
20260507183749 72 203 1.7 1.7 0.00 0.00 0.82 96 1008.8
20260507183247 72 221 7.8 7.8 0.00 0.00 0.82 95 1009.1
20260507182745 71 198 2.6 2.6 0.00 0.00 0.82 96 1009.1
20260507182243 71 184 5.2 5.2 0.00 0.00 0.82 96 1009.1
20260507181740 71 258 3.5 5.2 0.00 0.00 0.82 96 1009.1
20260507181236 71 267 5.2 5.2 0.00 0.00 0.82 97 1009.1
20260507180733 71 237 3.5 8.7 0.00 0.00 0.82 97 1009.1
20260507180231 71 235 7.0 8.7 0.00 0.00 0.82 96 1009.1
20260507175729 72 265 7.0 8.7 0.00 0.00 0.82 96 1008.8
20260507175227 72 258 6.1 7.0 0.00 0.00 0.82 95 1008.8
20260507174725 72 221 4.3 7.8 0.00 0.00 0.82 99 1008.4
20260507174222 71 209 4.3 6.1 0.00 0.00 0.82 99 1008.4
20260507173720 71 207 4.3 7.0 0.00 0.00 0.82 98 1008.8
20260507173218 71 211 4.3 7.8 0.00 0.00 0.82 98 1008.8
20260507172716 70 202 3.5 7.0 0.00 0.00 0.82 99 1009.1
20260507172213 70 175 5.2 6.1 0.00 0.00 0.82 100 1009.1
20260507171711 70 153 6.1 7.0 0.00 0.00 0.82 100 1009.1
20260507171209 70 223 5.2 8.7 0.00 0.00 0.82 99 1009.4
20260507170707 70 204 6.1 7.0 0.00 0.00 0.82 100 1009.4
20260507170205 69 227 5.2 5.2 0.00 0.00 0.82 100 1009.4
20260507165703 69 253 3.5 4.3 0.00 0.00 0.82 100 1009.8
20260507165200 69 227 3.5 8.7 0.00 0.00 0.81 100 1009.8
20260507164658 69 280 6.1 9.6 0.00 0.00 0.81 100 1010.1
20260507164156 69 218 4.3 6.1 0.00 0.00 0.00 100 1010.1
20260507163654 69 260 6.1 6.1 0.00 0.00 0.78 100 1010.1
20260507163152 69 226 4.3 9.6 0.00 0.00 0.78 100 1010.4
20260507162649 69 224 4.3 6.1 0.00 0.00 0.77 100 1010.4
20260507162147 69 191 4.3 8.7 0.00 0.00 0.76 100 1010.4
20260507161644 69 215 3.5 7.8 0.00 0.00 0.76 100 1010.4
20260507161142 69 149 6.1 7.8 0.00 0.00 0.76 100 1010.1
20260507160640 69 176 3.5 7.8 0.00 0.00 0.76 100 1010.1
20260507160137 69 217 3.5 7.8 0.00 0.00 0.76 100 1010.1
20260507155635 69 169 3.5 8.7 0.00 0.00 0.75 100 1010.1
20260507155133 69 182 7.0 8.7 0.00 0.00 0.74 100 1010.1
20260507154631 69 176 4.3 7.8 0.00 0.00 0.73 100 1010.1
20260507154129 69 181 7.0 7.8 0.00 0.00 0.72 100 1010.1
20260507153626 69 209 5.2 5.2 0.00 0.00 0.71 100 1010.4
20260507153124 70 189 2.6 3.5 0.00 0.00 0.00 100 1010.4
20260507152622 69 174 1.7 3.5 0.00 0.00 0.00 100 1010.1
20260507152120 69 202 1.7 3.5 0.00 0.00 0.00 100 1010.4
20260507151618 69 186 4.3 4.3 0.00 0.00 0.00 100 1010.4
20260507151116 69 243 3.5 7.0 0.00 0.00 0.69 100 1010.8
20260507150613 69 215 5.2 5.2 0.00 0.00 0.68 100 1010.8
20260507150111 69 198 3.5 3.5 0.00 0.00 0.68 100 1010.8
20260507145609 69 189 4.3 5.2 0.00 0.00 0.67 100 1010.8
20260507145107 69 278 1.7 5.2 0.00 0.00 0.65 100 1011.1
20260507144604 69 239 4.3 6.1 0.00 0.00 0.64 100 1010.8
20260507144102 69 227 3.5 5.2 0.00 0.00 0.62 100 1010.8
20260507143600 69 199 2.6 4.3 0.00 0.00 0.61 100 1011.1
20260507143058 69 170 3.5 7.8 0.00 0.00 0.59 100 1011.1
20260507142556 69 223 3.5 6.1 0.00 0.00 0.58 99 1011.1
20260507142053 69 188 4.3 8.7 0.00 0.00 0.57 99 1010.8
20260507141551 69 191 2.6 6.1 0.00 0.00 0.56 99 1010.8
20260507141049 70 168 0.9 6.1 0.00 0.00 0.56 99 1011.1
20260507140547 70 206 5.2 6.1 0.00 0.00 0.56 99 1011.1
20260507140045 70 222 3.5 4.3 0.00 0.00 0.56 100 1011.1
20260507135542 69 229 3.5 4.3 0.00 0.00 0.56 100 1010.8
20260507135040 69 177 3.5 4.3 0.00 0.00 0.56 100 1010.8
20260507134538 69 243 6.1 6.1 0.00 0.00 0.56 99 1010.8
20260507134036 69 233 3.5 3.5 0.00 0.00 0.56 99 1010.8
20260507133533 69 268 0.9 3.5 0.00 0.00 0.56 99 1010.8
20260507133032 69 230 4.3 7.8 0.00 0.00 0.56 99 1010.8
20260507132529 69 217 3.5 6.1 0.00 0.00 0.56 99 1010.4
20260507132027 69 240 6.1 6.1 0.00 0.00 0.56 99 1010.4
20260507131525 69 231 3.5 7.0 0.00 0.00 0.56 99 1010.4
20260507131023 69 186 6.1 8.7 0.00 0.00 0.56 99 1010.4
20260507130520 69 205 4.3 6.1 0.00 0.00 0.56 100 1010.4
20260507130018 69 208 4.3 4.3 0.00 0.00 0.56 100 1010.4
20260507125516 69 208 4.3 6.1 0.00 0.00 0.56 100 1010.8
20260507125014 69 183 3.5 7.0 0.00 0.00 0.56 100 1010.8
20260507124512 68 222 5.2 5.2 0.00 0.00 0.56 100 1010.8
20260507124010 68 161 5.2 8.7 0.00 0.00 0.56 100 1010.8
20260507123507 68 173 4.3 6.1 0.00 0.00 0.56 100 1010.8
20260507123005 68 205 3.5 6.1 0.00 0.00 0.56 100 1011.1
20260507122459 68 192 1.7 5.2 0.00 0.00 0.56 100 1011.5
20260507121957 68 268 3.5 7.8 0.00 0.00 0.56 100 1011.1
20260507121455 68 226 6.1 7.8 0.00 0.00 0.56 100 1011.5
20260507120952 68 169 7.8 11.3 0.00 0.00 0.56 100 1011.5
20260507120450 68 188 4.3 11.3 0.00 0.00 0.56 100 1011.5
20260507115948 68 187 3.5 7.8 0.00 0.00 0.56 100 1011.5
20260507115446 68 181 3.5 7.8 0.00 0.00 0.56 100 1011.5
20260507114943 68 214 11.3 11.3 0.00 0.00 0.56 100 1011.5
20260507114441 68 206 5.2 8.7 0.00 0.00 0.56 100 1011.8
20260507113939 68 172 3.5 5.2 0.00 0.00 0.56 100 1011.8
20260507113437 68 208 6.1 7.0 0.00 0.00 0.56 100 1011.8
20260507112934 68 207 3.5 6.1 0.00 0.00 0.56 100 1011.8
20260507112432 68 229 5.2 7.0 0.00 0.00 0.55 100 1011.5
20260507111929 68 195 4.3 7.0 0.00 0.00 0.55 100 1011.5
20260507111426 68 278 2.6 7.8 0.00 0.00 0.55 100 1011.8
20260507110924 67 186 6.1 11.3 0.00 0.00 0.55 100 1011.8
20260507110422 67 183 5.2 7.8 0.00 0.00 0.55 100 1011.8
20260507105919 67 201 7.0 7.8 0.00 0.00 0.55 100 1011.5
20260507105417 67 200 6.1 6.1 0.00 0.00 0.54 100 1011.5
20260507104915 67 174 4.3 6.1 0.00 0.00 0.54 100 1011.5
20260507104413 67 193 4.3 4.3 0.00 0.00 0.53 100 1011.5
20260507103910 67 289 2.6 3.5 0.00 0.00 0.53 100 1011.8
20260507103408 67 234 1.7 2.6 0.00 0.00 0.52 100 1011.5
20260507102906 67 165 4.3 5.2 0.00 0.00 0.52 100 1011.5
20260507102404 67 170 4.3 4.3 0.00 0.00 0.52 100 1011.1
20260507101901 67 208 3.5 6.1 0.00 0.00 0.51 100 1011.1
20260507101359 67 206 3.5 5.2 0.00 0.00 0.00 100 1011.1
20260507100857 67 202 1.7 4.3 0.00 0.00 0.00 100 1011.1
20260507100355 67 230 4.3 4.3 0.00 0.00 0.49 100 1011.1
20260507095852 67 179 5.2 6.1 0.00 0.00 0.48 100 1010.8
20260507095349 67 156 7.0 10.4 0.00 0.00 0.48 100 1010.4
20260507094847 67 159 7.0 12.2 0.00 0.00 0.47 100 1010.4
20260507094345 67 199 7.0 8.7 0.00 0.00 0.47 100 1010.8
20260507093843 67 185 2.6 6.1 0.00 0.00 0.46 100 1011.1
20260507093341 67 171 0.9 2.6 0.00 0.00 0.46 100 1011.1
20260507092838 67 185 2.6 3.5 0.00 0.00 0.46 100 1011.1
20260507092336 67 210 5.2 5.2 0.00 0.00 0.45 100 1011.5
20260507091833 67 174 2.6 2.6 0.00 0.00 0.45 100 1011.5
20260507091331 67 170 3.5 3.5 0.00 0.00 0.44 100 1011.8
20260507090829 67 181 3.5 3.5 0.00 0.00 0.44 100 1011.8
20260507090327 67 211 1.7 2.6 0.00 0.00 0.42 100 1011.8
20260507085824 67 170 3.5 4.3 0.00 0.00 0.42 100 1011.8
20260507085322 67 182 2.6 2.6 0.00 0.00 0.00 100 1011.5
20260507084820 67 180 1.7 5.2 0.00 0.00 0.38 100 1011.8
20260507084317 67 199 2.6 3.5 0.00 0.00 0.35 100 1012.1
20260507083814 67 206 6.1 7.8 0.00 0.00 0.32 100 1012.5
20260507083312 67 196 6.1 6.1 0.00 0.00 0.28 100 1012.5
20260507082810 67 263 7.8 7.8 0.00 0.00 0.24 100 1012.5
20260507082308 67 175 4.3 4.3 0.00 0.00 0.22 100 1012.5
20260507081805 67 195 4.3 4.3 0.00 0.00 0.15 100 1012.5
20260507081303 67 205 1.7 3.5 0.00 0.00 0.13 100 1012.1
20260507080801 66 190 2.6 2.6 0.00 0.00 0.12 100 1012.1
20260507080259 67 157 2.6 2.6 0.00 0.00 0.00 100 1012.1
20260507075757 67 202 5.2 5.2 0.00 0.00 0.09 100 1012.1
20260507075254 67 247 2.6 3.5 0.00 0.00 0.08 100 1012.1
20260507074750 67 182 3.5 5.2 0.00 0.00 0.07 100 1011.8
20260507074244 67 195 2.6 2.6 0.00 0.00 0.06 100 1012.1
20260507073742 67 180 2.6 4.3 0.00 0.00 0.05 100 1012.1
20260507073239 67 210 2.6 2.6 0.00 0.00 0.04 100 1012.1
20260507072737 67 184 2.6 2.6 0.00 0.00 0.04 100 1012.1
20260507072235 67 227 1.7 1.7 0.00 0.00 0.04 100 1012.5
20260507071733 67 190 0.0 0.0 0.00 0.00 0.04 100 1012.5
20260507071230 66 207 0.0 1.7 0.00 0.00 0.04 100 1012.5
20260507070728 66 175 0.9 1.7 0.00 0.00 0.04 100 1012.5
20260507070226 66 153 0.0 0.9 0.00 0.00 0.04 100 1012.5
20260507065724 66 157 1.7 2.6 0.00 0.00 0.04 100 1012.5
20260507065221 66 157 0.0 0.9 0.00 0.00 0.04 100 1012.5